Warning: Javascript must be enabled to use all the features on this page!


Page Loading - Please Wait...

* We've detected you're using a mobile device. Find our Next Generation Station Page here.
Click to hideNews Bulletins
  • Attention current WaterAlert users: NextGen WaterAlert is replacing Legacy WaterAlert. You must take action before 9/30/2022 to retain your alerts. Read more.
  • Explore the NEW USGS National Water Dashboard interactive map to access real-time water data from over 13,500 stations nationwide.
  • Full News RSS icon

Peak Streamflow for the Nation

USGS 05104500 ROSEAU RIVER BELOW SOUTH FORK NEAR MALUNG, MN

Roseau County, Minnesota
Hydrologic Unit Code 09020314
Latitude  48°47'41", Longitude  95°44'32" NAD27
Drainage area 430  square miles
Gage datum 1,031.18 feet above NAVD88
Output formats
Table
Graph
Tab-separated file
peakfq (watstore) format
Reselect output format
Water
Year
Date Gage
Height
(feet)
Stream-
flow
(cfs)
1929 1929-04-07 8.40 765
1930 1930-04-05 8.10 823
1931 1931-04-06 3.90 109
1932 1932-04-07 9.70 1,010
1933 1933-04-02 6.80 490
1934 1934-04-06 4.00 113
1935 1935-04-11 6.05 367
1936 1936-04-19 10.20 1,110
1937 1937-08-07 8.20 740
1938 1938-05-11 17.90 2,690
1940 1940-05-17 8.60 813
1941 1941-04-10 20.50 3,270
1942 1942-05-03 19.00 2,940
1943 1943-06-27 14.30 1,920
1944 1944-06-08 12.10 1,480
1945 1945-03-30 12.60 1,590
1946 1946-03-26 12.70 1,600
1947 1947-06-13 20.20 3,190
1948 1948-04-21 18.39 3,940
1949 1949-04-12 13.57 1,860
1950 1950-04-24 22.51 4,750
1951 1951-04-09 16.76 3,240
1952 1952-04-10   5002
1953 1953-05-14 6.742 395
1954 1954-04-14 8.542 798
1955 1955-06-04 9.012 887
1956 1956-04-24 14.682 2,410
1957 1957-09-06 15.13 2,590
1958 1958-07-09 7.84 668
1959 1959-04-05 11.422 1,200
1960 1960-04-15 9.422 984
1961 1961-03-25 8.431 610
1962 1962-06-12 16.98 3,330
1963 1963-04-09 11.86 1,470
1964 1964-06-14 13.96 1,890
1965 1965-04-13 21.90 4,660
1966 1966-04-03 23.371 5,050
1967 1967-03-31 18.671 3,410
1968 1968-07-18 22.32 5,750
1969 1969-04-11 21.591 5,110
1970 1970-04-29 16.74 3,010
1971 1971-04-08 14.441 1,670
1972 1972-04-15 12.67 1,710
1973 1973-09-28 7.37 564
1974 1974-04-22   3,1002
1975 1975-07-03 18.93 4,180
1976 1976-04-01 13.201 720
1977 1977-04-10 6.21 181
1978 1978-04-10 18.381 2,550
1979 1979-04-25 21.78 5,480
1980 1980-04-07 16.03 2,950
1981 1981-07-02 7.22 506
1982 1982-04-18 13.24 1,880
1983 1983-06-27 9.28 912
1984 1984-03-27 12.881 1,250
1985 1985-06-29 21.14 5,170
1986 1986-03-30 17.38 3,450
1987 1987-03-24 13.621 1,080
1988 1988-04-04 11.001 700
1989 1989-04-17 17.631 1,700
1990 1990-04-01 5.492 78.0
1991 1991-06-14 9.10 898
1992 1992-03-31 14.302 1,8002
1993 1993-09-01 14.69 2,220
1994 1994-09-16 15.81 2,630
1995 1995-03-18   1,5502
1996 1996-05-19 23.162 7,310
1997 1997-04-19   4,3001
1998 1998-05-16 11.292 1,460
1999 1999-04-08 18.22 3,300
2000 2000-06-26 10.572 1,260
2001 2001-08-02 19.59 4,090
2002 2002-06-12 26.96 16,000
2003 2003-06-15 6.572 329
2004 2004-05-13 22.43 7,280
2005 2005-07-01 13.282 1,970
2006 2006-04-02 21.16 4,350
2007 2007-04-02   7041,2
2008 2008-06-13 8.68 7261,2
2009 2009-03-25   4,6001,2
2010 2010-09-27 13.652 2,070
2011 2011-04-13   2,7701,2
2012 2012-03-15   4171,2
2013 2013-05-23 11.922 1,640
2014 2014-05-14 14.192 2,320
2015 2015-05-20 10.70 1,310
2016 2016-06-20 11.332 1,470
2017 2017-04-01 13.41 2,050
2018 2018-04-20 7.801,2 5662
2019 2019-09-23 19.47 3,960
2020 2019-10-13 17.87 3,270
2021 2021-05-21 5.252 118
?
  Peak Gage-Height Qualification Codes.
?
  Peak Streamflow Qualification Codes.